Regional Weather Roundup
Issued by NWS

Home | Current Version | Previous Version | Graphics & Text | Print | Product List | Glossary On
Versions: 1 2 3 4 5 6 7 8 9 10 11 12 13 14 15 16 17 18 19 20 21 22 23 24 25 26 27 28 29 30 31 32 33 34 35 36 37 38 39 40 41 42 43 44 45 46 47 48 49 50
403
ASUS45 KBOI 232210
RWRID

IDAHO REGIONAL WEATHER ROUNDUP
NATIONAL WEATHER SERVICE BOISE ID
400 PM MDT SAT SEP 23 2017

NOTE: "FAIR" INDICATES FEW OR NO CLOUDS BELOW 12000 FEET
WITH NO SIGNIFICANT WEATHER AND/OR OBSTRUCTIONS TO VISIBILITY

IDZ012-014-232300-
SOUTHWEST IDAHO


CITY           SKY/WX    TMP DP  RH WIND       PRES   REMARKS
BOISE          SUNNY     60  37  42 NW10      30.03S
CALDWELL       SUNNY     61  36  39 NW10      30.04F
MOUNTAIN HOME  SUNNY     60  35  39 NW7       30.02F
$$

IDZ016-017-232300-
SOUTHCENTRAL IDAHO


CITY           SKY/WX    TMP DP  RH WIND       PRES   REMARKS
BURLEY         MOSUNNY   51  34  52 VRB3      30.00S
JEROME         MOSUNNY   53  36  52 SW9       30.02S
TWIN FALLS     MOSUNNY   53  35  50 W12       30.03R
$$

IDZ019>023-232300-
SOUTHEAST IDAHO


CITY           SKY/WX    TMP DP  RH WIND       PRES   REMARKS
IDAHO FALLS    MOSUNNY   54  35  48 VRB7      29.99F
POCATELLO      MOSUNNY   53  35  50 W8        30.00F
REXBURG        MOSUNNY   53  33  46 VRB7      29.98F
$$

IDZ006-010-011-018-031-032-232300-
CENTRAL IDAHO MOUNTAINS


CITY           SKY/WX    TMP DP  RH WIND       PRES   REMARKS
MCCALL         CLOUDY    48  26  42 NW6       30.04S
HAILEY         PTSUNNY   52  30  43 SE10      30.02R
STANLEY          N/A     45  24  43 NW6       30.05S
SALMON         CLOUDY    54  29  38 N3        30.05F
CHALLIS        CLOUDY    49  28  44 CALM      30.04S
$$

IDZ002-004-006-007-026-232300-
NORTHERN IDAHO


CITY           SKY/WX    TMP DP  RH WIND       PRES   REMARKS
LEWISTON       SUNNY     63  41  44 VRB3      30.09S
LOWELL           N/A     59  38  45 CALM      30.10S
COEUR D`ALENE  MOSUNNY   60  38  43 SW8       30.08
MULLAN PASS    CLOUDY    38  33  82 CALM      30.10R
$$




USA.gov is the U.S. government's official web portal to all federal, state and local government web resources and services.